START_TIME,STEP,MOV.,M34,t_acc.,L5,t_acc.,L18,t_acc.,L14,t_acc.
1980-11-13 21:00:13.260 ,7,0,0.,12.0,5.,12.0,0.,12.0,0.,12.0
1980-11-13 21:00:25.260 ,7,0,0.,12.0,5.,12.0,0.,12.0,0.,12.0
1980-11-13 21:00:37.260 ,7,1,0.,12.0,2.,12.0,0.,12.0,0.,12.0
1980-11-13 21:00:49.260 ,7,1,0.,12.0,3.,12.0,0.,12.0,0.,12.0
1980-11-13 21:01:01.260 ,7,0,0.,12.0,2.,12.0,0.,12.0,0.,12.0
1980-11-13 21:01:13.260 ,7,0,0.,12.0,5.,12.0,0.,12.0,0.,12.0
1980-11-13 21:01:25.260 ,6,1,0.,12.0,4.,12.0,0.,12.0,0.,12.0
1980-11-13 21:01:37.260 ,6,1,0.,12.0,1.,12.0,0.,12.0,0.,12.0
1980-11-13 21:01:49.260 ,6,0,0.,12.0,0.,12.0,0.,12.0,0.,12.0
1980-11-13 21:02:01.260 ,6,0,0.,12.0,0.,12.0,0.,12.0,0.,12.0
1980-11-13 21:02:13.260 ,5,1,0.,12.0,0.,12.0,0.,12.0,0.,12.0
1980-11-13 21:02:25.260 ,5,1,0.,12.0,0.,12.0,0.,12.0,0.,12.0
1980-11-13 21:02:37.260 ,5,0,0.,12.0,0.,12.0,0.,12.0,0.,12.0
1980-11-13 21:02:49.260 ,5,0,0.,12.0,0.,12.0,0.,12.0,0.,12.0
1980-11-13 21:03:01.260 ,4,1,0.,12.0,0.,12.0,0.,12.0,0.,12.0
1980-11-13 21:03:13.260 ,4,1,0.,12.0,0.,12.0,0.,12.0,0.,12.0
1980-11-13 21:03:25.260 ,4,0,0.,12.0,0.,12.0,0.,12.0,0.,12.0
1980-11-13 21:03:37.260 ,4,0,0.,12.0,0.,12.0,0.,12.0,0.,12.0
1980-11-13 21:03:49.260 ,3,1,0.,12.0,0.,12.0,0.,12.0,0.,12.0
1980-11-13 21:04:01.260 ,3,1,0.,12.0,0.,12.0,0.,12.0,0.,12.0
1980-11-13 21:04:13.260 ,3,0,0.,12.0,0.,12.0,0.,12.0,0.,12.0
1980-11-13 21:04:25.260 ,3,0,0.,12.0,0.,12.0,0.,12.0,0.,12.0
1980-11-13 21:04:37.260 ,2,1,0.,12.0,0.,12.0,0.,12.0,0.,12.0
1980-11-13 21:04:49.260 ,2,1,0.,12.0,0.,12.0,0.,12.0,1.,12.0
1980-11-13 21:05:01.260 ,2,0,0.,12.0,0.,12.0,0.,12.0,0.,12.0
1980-11-13 21:05:13.260 ,2,0,0.,12.0,0.,12.0,0.,12.0,0.,12.0
1980-11-13 21:05:25.260 ,1,1,0.,12.0,0.,12.0,0.,12.0,0.,12.0
1980-11-13 21:05:37.260 ,1,1,0.,12.0,0.,12.0,0.,12.0,0.,12.0
1980-11-13 21:05:49.260 ,0,0,0.,12.0,0.,12.0,0.,12.0,0.,12.0
1980-11-13 21:06:01.260 ,0,0,0.,12.0,0.,12.0,0.,12.0,0.,12.0
1980-11-13 21:07:16.860 ,0,0,,0,,0,,0,,0
1980-11-13 21:07:28.860 ,0,0,,0,,0,,0,,0
1980-11-13 21:07:25.260 ,0,0,0.,12.0,0.,12.0,0.,12.0,0.,12.0
1980-11-13 21:07:37.260 ,0,0,0.,12.0,0.,12.0,0.,12.0,0.,12.0
1980-11-13 21:07:49.260 ,1,1,0.,12.0,0.,12.0,0.,12.0,0.,12.0
1980-11-13 21:08:01.260 ,1,1,0.,12.0,0.,12.0,0.,12.0,0.,12.0
1980-11-13 21:08:13.260 ,1,0,0.,12.0,0.,12.0,0.,12.0,0.,12.0
1980-11-13 21:08:25.260 ,1,0,0.,12.0,0.,12.0,0.,12.0,1.,12.0
1980-11-13 21:08:37.260 ,2,1,0.,12.0,0.,12.0,0.,12.0,0.,12.0
1980-11-13 21:08:49.260 ,2,1,0.,12.0,0.,12.0,0.,12.0,1.,12.0
1980-11-13 21:09:01.260 ,2,0,0.,12.0,0.,12.0,0.,12.0,0.,12.0
1980-11-13 21:09:13.260 ,2,0,0.,12.0,0.,12.0,0.,12.0,0.,12.0
1980-11-13 21:09:25.260 ,3,1,0.,12.0,0.,12.0,0.,12.0,0.,12.0
1980-11-13 21:09:37.260 ,3,1,0.,12.0,0.,12.0,0.,12.0,0.,12.0
1980-11-13 21:09:49.260 ,3,0,0.,12.0,0.,12.0,0.,12.0,0.,12.0
1980-11-13 21:10:01.260 ,3,0,0.,12.0,0.,12.0,0.,12.0,0.,12.0
1980-11-13 21:10:13.260 ,4,1,0.,12.0,0.,12.0,0.,12.0,0.,12.0
1980-11-13 21:10:25.260 ,4,1,0.,12.0,0.,12.0,0.,12.0,0.,12.0
1980-11-13 21:10:37.260 ,4,0,0.,12.0,0.,12.0,0.,12.0,0.,12.0
1980-11-13 21:10:49.260 ,4,0,0.,12.0,0.,12.0,0.,12.0,0.,12.0
1980-11-13 21:11:01.260 ,5,1,0.,12.0,0.,12.0,0.,12.0,0.,12.0
1980-11-13 21:11:13.260 ,5,1,0.,12.0,0.,12.0,0.,12.0,1.,12.0
1980-11-13 21:11:25.260 ,5,0,0.,12.0,0.,12.0,0.,12.0,0.,12.0
1980-11-13 21:11:37.260 ,5,0,0.,12.0,0.,12.0,0.,12.0,0.,12.0
1980-11-13 21:11:49.260 ,6,1,0.,12.0,0.,12.0,0.,12.0,0.,12.0
1980-11-13 21:12:01.260 ,6,1,0.,12.0,0.,12.0,0.,12.0,0.,12.0
1980-11-13 21:12:13.260 ,6,0,0.,12.0,0.,12.0,0.,12.0,0.,12.0
1980-11-13 21:12:25.260 ,6,0,0.,12.0,0.,12.0,0.,12.0,0.,12.0
1980-11-13 21:12:37.260 ,7,1,0.,12.0,0.,12.0,0.,12.0,0.,12.0
1980-11-13 21:12:49.260 ,7,1,0.,12.0,3.,12.0,0.,12.0,0.,12.0
1980-11-13 21:13:01.260 ,7,0,0.,12.0,2.,12.0,0.,12.0,0.,12.0
1980-11-13 21:13:13.260 ,7,0,0.,12.0,6.,12.0,0.,12.0,0.,12.0
1980-11-13 21:13:25.260 ,7,1,0.,12.0,5.,12.0,0.,12.0,0.,12.0
1980-11-13 21:13:37.260 ,7,1,0.,12.0,2.,12.0,0.,12.0,0.,12.0
1980-11-13 21:13:49.260 ,0,0,0.,12.0,3.,12.0,0.,12.0,0.,12.0
1980-11-13 21:14:01.260 ,0,0,0.,12.0,4.,12.0,0.,12.0,0.,12.0
1980-11-13 21:14:35.460 ,0,0,,0,,0,,0,,0
1980-11-13 21:14:47.460 ,0,0,,0,,0,,0,,0
1980-11-13 21:14:37.260 ,0,0,0.,12.0,0.,12.0,0.,12.0,1.,12.0
1980-11-13 21:14:49.260 ,0,0,0.,12.0,0.,12.0,0.,12.0,0.,12.0
1980-11-13 21:15:01.260 ,5,1,0.,12.0,0.,12.0,0.,12.0,0.,12.0
1980-11-13 21:15:13.260 ,5,1,0.,12.0,0.,12.0,0.,12.0,0.,12.0
1980-11-13 21:15:25.260 ,5,0,0.,12.0,0.,12.0,0.,12.0,0.,12.0
1980-11-13 21:15:37.260 ,5,0,0.,12.0,0.,12.0,0.,12.0,0.,12.0
1980-11-13 21:15:49.260 ,0,0,0.,12.0,0.,12.0,0.,12.0,0.,12.0
1980-11-13 21:16:01.260 ,0,0,0.,12.0,0.,12.0,0.,12.0,0.,12.0
1980-11-13 21:16:13.260 ,2,0,0.,12.0,0.,12.0,0.,12.0,0.,12.0
1980-11-13 21:16:25.260 ,2,0,0.,12.0,0.,12.0,0.,12.0,0.,12.0
1980-11-13 21:16:37.260 ,2,0,0.,12.0,0.,12.0,0.,12.0,0.,12.0
1980-11-13 21:16:49.260 ,2,0,0.,12.0,0.,12.0,0.,12.0,0.,12.0
1980-11-13 21:17:01.260 ,2,0,0.,12.0,0.,12.0,0.,12.0,0.,12.0
1980-11-13 21:17:13.260 ,2,0,0.,12.0,0.,12.0,0.,12.0,0.,12.0
1980-11-13 21:17:25.260 ,2,0,0.,12.0,0.,12.0,0.,12.0,1.,12.0
1980-11-13 21:17:37.260 ,2,0,0.,12.0,0.,12.0,0.,12.0,0.,12.0
1980-11-13 21:17:49.260 ,2,0,0.,12.0,0.,12.0,0.,12.0,0.,12.0
1980-11-13 21:18:01.260 ,2,0,0.,12.0,0.,12.0,0.,12.0,0.,12.0
1980-11-13 21:18:13.260 ,2,0,0.,12.0,0.,12.0,0.,12.0,0.,12.0
1980-11-13 21:18:25.260 ,2,0,0.,12.0,1.,12.0,0.,12.0,0.,12.0
1980-11-13 21:18:37.260 ,2,0,0.,12.0,0.,12.0,0.,12.0,0.,12.0
1980-11-13 21:18:49.260 ,2,0,0.,12.0,0.,12.0,0.,12.0,0.,12.0
1980-11-13 21:19:01.260 ,2,0,0.,12.0,0.,12.0,0.,12.0,0.,12.0
1980-11-13 21:19:13.260 ,2,0,0.,12.0,0.,12.0,0.,12.0,0.,12.0
1980-11-13 21:19:25.260 ,2,0,0.,12.0,0.,12.0,0.,12.0,0.,12.0
1980-11-13 21:19:37.260 ,2,0,0.,12.0,0.,12.0,0.,12.0,0.,12.0
1980-11-13 21:19:49.260 ,2,0,0.,12.0,0.,12.0,0.,12.0,0.,12.0
1980-11-13 21:20:01.260 ,2,0,0.,12.0,0.,12.0,0.,12.0,0.,12.0
1980-11-13 21:20:13.260 ,2,0,0.,12.0,0.,12.0,0.,12.0,0.,12.0
1980-11-13 21:20:25.260 ,2,0,0.,12.0,0.,12.0,0.,12.0,0.,12.0
1980-11-13 21:20:37.260 ,2,0,0.,12.0,0.,12.0,0.,12.0,0.,12.0
1980-11-13 21:20:49.260 ,2,0,0.,12.0,0.,12.0,0.,12.0,0.,12.0
1980-11-13 21:21:01.260 ,2,0,0.,12.0,0.,12.0,0.,12.0,0.,12.0
1980-11-13 21:21:13.260 ,2,0,0.,12.0,0.,12.0,0.,12.0,0.,12.0
1980-11-13 21:21:25.260 ,2,0,0.,12.0,0.,12.0,0.,12.0,0.,12.0
1980-11-13 21:21:37.260 ,2,0,0.,12.0,0.,12.0,0.,12.0,0.,12.0
1980-11-13 21:21:49.260 ,2,0,0.,12.0,0.,12.0,0.,12.0,0.,12.0
1980-11-13 21:22:01.260 ,2,0,0.,12.0,0.,12.0,0.,12.0,0.,12.0
1980-11-13 21:22:13.260 ,2,0,0.,12.0,0.,12.0,0.,12.0,0.,12.0
1980-11-13 21:22:25.260 ,2,0,0.,12.0,0.,12.0,0.,12.0,0.,12.0
1980-11-13 21:22:37.260 ,2,0,0.,12.0,0.,12.0,0.,12.0,0.,12.0
1980-11-13 21:22:49.260 ,2,0,0.,12.0,0.,12.0,0.,12.0,0.,12.0
1980-11-13 21:23:01.260 ,2,0,0.,12.0,0.,12.0,0.,12.0,0.,12.0
1980-11-13 21:23:13.260 ,2,0,0.,12.0,0.,12.0,0.,12.0,1.,12.0
1980-11-13 21:23:25.260 ,2,0,0.,12.0,0.,12.0,0.,12.0,0.,12.0
1980-11-13 21:23:37.260 ,2,0,0.,12.0,0.,12.0,0.,12.0,2.,12.0
1980-11-13 21:23:49.260 ,2,0,0.,12.0,0.,12.0,0.,12.0,0.,12.0
1980-11-13 21:24:01.260 ,2,0,0.,12.0,0.,12.0,0.,12.0,0.,12.0
1980-11-13 21:24:13.260 ,2,0,0.,12.0,0.,12.0,0.,12.0,0.,12.0
1980-11-13 21:24:25.260 ,2,0,0.,12.0,0.,12.0,0.,12.0,0.,12.0
1980-11-13 21:24:37.260 ,2,0,0.,12.0,0.,12.0,0.,12.0,0.,12.0
1980-11-13 21:24:49.260 ,2,0,0.,12.0,0.,12.0,0.,12.0,0.,12.0
1980-11-13 21:25:01.260 ,2,0,0.,12.0,0.,12.0,0.,12.0,0.,12.0
1980-11-13 21:25:13.260 ,2,0,0.,12.0,0.,12.0,0.,12.0,0.,12.0
1980-11-13 21:25:25.260 ,2,0,0.,12.0,0.,12.0,0.,12.0,0.,12.0
1980-11-13 21:25:37.260 ,2,0,0.,12.0,0.,12.0,0.,12.0,0.,12.0
1980-11-13 21:25:49.260 ,2,0,0.,12.0,0.,12.0,0.,12.0,0.,12.0
1980-11-13 21:26:01.260 ,2,0,0.,12.0,0.,12.0,0.,12.0,0.,12.0
1980-11-13 21:26:13.260 ,2,0,0.,12.0,0.,12.0,0.,12.0,0.,12.0
1980-11-13 21:26:25.260 ,2,0,0.,12.0,0.,12.0,0.,12.0,0.,12.0
1980-11-13 21:26:37.260 ,2,0,0.,12.0,0.,12.0,0.,12.0,0.,12.0
1980-11-13 21:26:49.260 ,2,0,0.,12.0,0.,12.0,0.,12.0,0.,12.0
1980-11-13 21:27:01.260 ,2,0,0.,12.0,0.,12.0,0.,12.0,0.,12.0
1980-11-13 21:27:13.260 ,2,0,0.,12.0,0.,12.0,0.,12.0,0.,12.0
1980-11-13 21:27:25.260 ,2,0,0.,12.0,0.,12.0,0.,12.0,0.,12.0
1980-11-13 21:27:37.260 ,2,0,0.,12.0,0.,12.0,0.,12.0,0.,12.0
1980-11-13 21:27:49.260 ,2,0,0.,12.0,0.,12.0,0.,12.0,1.,12.0
1980-11-13 21:28:01.260 ,2,0,0.,12.0,0.,12.0,0.,12.0,0.,12.0
1980-11-13 21:28:13.260 ,0,0,0.,12.0,0.,12.0,0.,12.0,0.,12.0
1980-11-13 21:28:25.260 ,0,0,0.,12.0,0.,12.0,0.,12.0,0.,12.0
1980-11-13 21:28:13.260 ,2,0,0.,12.0,0.,12.0,0.,12.0,0.,12.0
1980-11-13 21:28:25.260 ,2,0,0.,12.0,0.,12.0,0.,12.0,0.,12.0
1980-11-13 21:28:37.260 ,2,0,0.,12.0,0.,12.0,0.,12.0,0.,12.0
1980-11-13 21:28:49.260 ,2,0,0.,12.0,0.,12.0,0.,12.0,0.,12.0
1980-11-13 21:29:01.260 ,2,0,0.,12.0,0.,12.0,0.,12.0,0.,12.0
1980-11-13 21:29:13.260 ,2,0,0.,12.0,0.,12.0,0.,12.0,0.,12.0
1980-11-13 21:29:25.260 ,2,0,0.,12.0,0.,12.0,0.,12.0,0.,12.0
1980-11-13 21:29:37.260 ,2,0,0.,12.0,0.,12.0,0.,12.0,0.,12.0
1980-11-13 21:29:49.260 ,2,0,0.,12.0,0.,12.0,0.,12.0,0.,12.0
1980-11-13 21:30:01.260 ,2,0,0.,12.0,0.,12.0,0.,12.0,0.,12.0
1980-11-13 21:30:13.260 ,2,0,0.,12.0,0.,12.0,0.,12.0,0.,12.0
1980-11-13 21:30:25.260 ,2,0,0.,12.0,0.,12.0,0.,12.0,0.,12.0
1980-11-13 21:30:37.260 ,2,0,0.,12.0,0.,12.0,0.,12.0,1.,12.0
1980-11-13 21:30:49.260 ,2,0,0.,12.0,0.,12.0,0.,12.0,0.,12.0
1980-11-13 21:31:01.260 ,2,0,0.,12.0,0.,12.0,0.,12.0,0.,12.0
1980-11-13 21:31:13.260 ,2,0,0.,12.0,0.,12.0,0.,12.0,0.,12.0
1980-11-13 21:31:25.260 ,2,0,0.,12.0,0.,12.0,0.,12.0,1.,12.0
1980-11-13 21:31:37.260 ,2,0,0.,12.0,0.,12.0,0.,12.0,1.,12.0
1980-11-13 21:31:49.260 ,2,0,0.,12.0,0.,12.0,0.,12.0,0.,12.0
1980-11-13 21:32:01.260 ,2,0,0.,12.0,0.,12.0,0.,12.0,0.,12.0
1980-11-13 21:32:13.260 ,2,0,0.,12.0,0.,12.0,0.,12.0,0.,12.0
1980-11-13 21:32:25.260 ,2,0,0.,12.0,0.,12.0,0.,12.0,0.,12.0
1980-11-13 21:32:37.260 ,2,0,0.,12.0,0.,12.0,0.,12.0,0.,12.0
1980-11-13 21:32:49.260 ,2,0,0.,12.0,0.,12.0,0.,12.0,1.,12.0
1980-11-13 21:33:01.260 ,2,0,0.,12.0,0.,12.0,0.,12.0,0.,12.0
1980-11-13 21:33:13.260 ,2,0,0.,12.0,0.,12.0,0.,12.0,0.,12.0
1980-11-13 21:33:25.260 ,2,0,0.,12.0,0.,12.0,0.,12.0,0.,12.0
1980-11-13 21:33:37.260 ,2,0,0.,12.0,0.,12.0,0.,12.0,0.,12.0
1980-11-13 21:33:49.260 ,2,0,0.,12.0,0.,12.0,0.,12.0,0.,12.0
1980-11-13 21:34:01.260 ,2,0,0.,12.0,0.,12.0,0.,12.0,0.,12.0
1980-11-13 21:34:13.260 ,2,0,0.,12.0,0.,12.0,0.,12.0,0.,12.0
1980-11-13 21:34:25.260 ,2,0,0.,12.0,0.,12.0,0.,12.0,0.,12.0
1980-11-13 21:34:37.260 ,2,0,0.,12.0,0.,12.0,0.,12.0,0.,12.0
1980-11-13 21:34:49.260 ,2,0,0.,12.0,0.,12.0,0.,12.0,0.,12.0
1980-11-13 21:35:01.260 ,2,0,0.,12.0,0.,12.0,0.,12.0,0.,12.0
1980-11-13 21:35:13.260 ,2,0,0.,12.0,0.,12.0,0.,12.0,0.,12.0
1980-11-13 21:35:25.260 ,2,0,0.,12.0,0.,12.0,0.,12.0,0.,12.0
1980-11-13 21:35:37.260 ,2,0,0.,12.0,0.,12.0,0.,12.0,1.,12.0
1980-11-13 21:35:49.260 ,2,0,0.,12.0,0.,12.0,0.,12.0,0.,12.0
1980-11-13 21:36:01.260 ,2,0,0.,12.0,0.,12.0,0.,12.0,0.,12.0
1980-11-13 21:36:13.260 ,2,0,0.,12.0,0.,12.0,0.,12.0,0.,12.0
1980-11-13 21:36:25.260 ,2,0,0.,12.0,0.,12.0,0.,12.0,0.,12.0
1980-11-13 21:36:37.260 ,2,0,0.,12.0,0.,12.0,0.,12.0,0.,12.0
1980-11-13 21:36:49.260 ,2,0,0.,12.0,0.,12.0,0.,12.0,0.,12.0
1980-11-13 21:37:01.260 ,2,0,0.,12.0,0.,12.0,0.,12.0,0.,12.0
1980-11-13 21:37:13.260 ,2,0,0.,12.0,0.,12.0,0.,12.0,0.,12.0
1980-11-13 21:37:25.260 ,2,0,0.,12.0,0.,12.0,0.,12.0,1.,12.0
1980-11-13 21:37:37.260 ,2,0,0.,12.0,0.,12.0,0.,12.0,0.,12.0
1980-11-13 21:37:49.260 ,2,0,0.,12.0,0.,12.0,0.,12.0,0.,12.0
1980-11-13 21:38:01.260 ,2,0,0.,12.0,0.,12.0,0.,12.0,0.,12.0
1980-11-13 21:38:13.260 ,2,0,0.,12.0,0.,12.0,0.,12.0,0.,12.0
1980-11-13 21:38:25.260 ,2,0,0.,12.0,0.,12.0,0.,12.0,1.,12.0
1980-11-13 21:38:37.260 ,2,0,0.,12.0,0.,12.0,0.,12.0,0.,12.0
1980-11-13 21:38:49.260 ,2,0,0.,12.0,0.,12.0,0.,12.0,0.,12.0
1980-11-13 21:39:01.260 ,2,0,0.,12.0,0.,12.0,0.,12.0,0.,12.0
1980-11-13 21:39:13.260 ,2,0,0.,12.0,0.,12.0,0.,12.0,0.,12.0
1980-11-13 21:39:25.260 ,2,0,0.,12.0,0.,12.0,0.,12.0,0.,12.0
1980-11-13 21:39:37.260 ,2,0,0.,12.0,0.,12.0,0.,12.0,0.,12.0
1980-11-13 21:39:49.260 ,2,0,0.,12.0,0.,12.0,0.,12.0,0.,12.0
1980-11-13 21:40:01.260 ,2,0,0.,12.0,0.,12.0,0.,12.0,0.,12.0
1980-11-13 21:40:13.260 ,2,0,0.,12.0,0.,12.0,0.,12.0,0.,12.0
1980-11-13 21:40:25.260 ,2,0,0.,12.0,0.,12.0,0.,12.0,0.,12.0
1980-11-13 21:40:37.260 ,2,0,0.,12.0,0.,12.0,0.,12.0,0.,12.0
1980-11-13 21:40:49.260 ,2,0,0.,12.0,0.,12.0,0.,12.0,0.,12.0
1980-11-13 21:41:01.260 ,2,0,0.,12.0,0.,12.0,0.,12.0,0.,12.0
1980-11-13 21:41:13.260 ,2,0,0.,12.0,0.,12.0,0.,12.0,0.,12.0
1980-11-13 21:41:25.260 ,2,0,0.,12.0,0.,12.0,0.,12.0,0.,12.0
1980-11-13 21:41:37.260 ,2,0,0.,12.0,0.,12.0,0.,12.0,0.,12.0
1980-11-13 21:41:49.260 ,2,0,0.,12.0,0.,12.0,0.,12.0,0.,12.0
1980-11-13 21:42:01.260 ,2,0,0.,12.0,0.,12.0,0.,12.0,0.,12.0
1980-11-13 21:42:13.260 ,2,0,0.,12.0,0.,12.0,0.,12.0,0.,12.0
1980-11-13 21:42:25.260 ,2,0,0.,12.0,0.,12.0,0.,12.0,0.,12.0
1980-11-13 21:42:37.260 ,2,0,0.,12.0,0.,12.0,0.,12.0,0.,12.0
1980-11-13 21:42:49.260 ,2,0,0.,12.0,0.,12.0,0.,12.0,0.,12.0
1980-11-13 21:43:01.260 ,2,0,0.,12.0,0.,12.0,0.,12.0,0.,12.0
1980-11-13 21:43:13.260 ,2,0,0.,12.0,0.,12.0,0.,12.0,0.,12.0
1980-11-13 21:43:25.260 ,2,0,0.,12.0,0.,12.0,0.,12.0,0.,12.0
1980-11-13 21:43:37.260 ,2,0,0.,12.0,0.,12.0,0.,12.0,0.,12.0
1980-11-13 21:43:49.260 ,2,0,0.,12.0,0.,12.0,0.,12.0,0.,12.0
1980-11-13 21:44:01.260 ,2,0,0.,12.0,0.,12.0,0.,12.0,0.,12.0
1980-11-13 21:44:13.260 ,2,0,0.,12.0,0.,12.0,0.,12.0,0.,12.0
1980-11-13 21:44:25.260 ,2,0,0.,12.0,0.,12.0,0.,12.0,0.,12.0
1980-11-13 21:44:37.260 ,2,0,0.,12.0,0.,12.0,0.,12.0,0.,12.0
1980-11-13 21:44:49.260 ,2,0,0.,12.0,0.,12.0,0.,12.0,0.,12.0
1980-11-13 21:45:01.260 ,2,0,0.,12.0,0.,12.0,0.,12.0,0.,12.0
1980-11-13 21:45:13.260 ,2,0,0.,12.0,0.,12.0,0.,12.0,1.,12.0
1980-11-13 21:45:25.260 ,2,0,0.,12.0,0.,12.0,0.,12.0,0.,12.0
1980-11-13 21:45:37.260 ,2,0,0.,12.0,0.,12.0,0.,12.0,1.,12.0
1980-11-13 21:45:49.260 ,2,0,0.,12.0,0.,12.0,0.,12.0,0.,12.0
1980-11-13 21:46:01.260 ,2,0,0.,12.0,0.,12.0,0.,12.0,0.,12.0
1980-11-13 21:46:13.260 ,2,0,0.,12.0,0.,12.0,0.,12.0,0.,12.0
1980-11-13 21:46:25.260 ,2,0,0.,12.0,0.,12.0,0.,12.0,0.,12.0
1980-11-13 21:46:37.260 ,2,0,0.,12.0,0.,12.0,0.,12.0,0.,12.0
1980-11-13 21:46:49.260 ,2,0,0.,12.0,0.,12.0,0.,12.0,0.,12.0
1980-11-13 21:47:01.260 ,2,0,0.,12.0,0.,12.0,0.,12.0,0.,12.0
1980-11-13 21:47:13.260 ,2,0,0.,12.0,0.,12.0,0.,12.0,0.,12.0
1980-11-13 21:47:25.260 ,2,0,0.,12.0,0.,12.0,0.,12.0,0.,12.0
1980-11-13 21:47:37.260 ,2,0,0.,12.0,0.,12.0,0.,12.0,0.,12.0
1980-11-13 21:47:49.260 ,2,0,0.,12.0,0.,12.0,0.,12.0,0.,12.0
1980-11-13 21:48:01.260 ,2,0,0.,12.0,0.,12.0,0.,12.0,0.,12.0
1980-11-13 21:48:13.260 ,2,0,0.,12.0,0.,12.0,0.,12.0,0.,12.0
1980-11-13 21:48:25.260 ,2,0,0.,12.0,0.,12.0,0.,12.0,0.,12.0
1980-11-13 21:48:37.260 ,2,0,0.,12.0,0.,12.0,0.,12.0,0.,12.0
1980-11-13 21:48:49.260 ,2,0,0.,12.0,0.,12.0,0.,12.0,0.,12.0
1980-11-13 21:49:01.260 ,2,0,0.,12.0,0.,12.0,0.,12.0,0.,12.0
1980-11-13 21:49:13.260 ,2,0,0.,12.0,0.,12.0,0.,12.0,0.,12.0
1980-11-13 21:49:25.260 ,2,0,0.,12.0,0.,12.0,0.,12.0,0.,12.0
1980-11-13 21:49:37.260 ,2,0,0.,12.0,0.,12.0,0.,12.0,0.,12.0
1980-11-13 21:49:49.260 ,2,0,0.,12.0,0.,12.0,0.,12.0,0.,12.0
1980-11-13 21:50:01.260 ,2,0,0.,12.0,0.,12.0,0.,12.0,0.,12.0
1980-11-13 21:50:13.260 ,2,0,0.,12.0,0.,12.0,0.,12.0,0.,12.0
1980-11-13 21:50:25.260 ,2,0,0.,12.0,0.,12.0,0.,12.0,0.,12.0
1980-11-13 21:50:37.260 ,2,0,0.,12.0,0.,12.0,0.,12.0,0.,12.0
1980-11-13 21:50:49.260 ,2,0,0.,12.0,0.,12.0,0.,12.0,0.,12.0
1980-11-13 21:51:01.260 ,2,0,0.,12.0,0.,12.0,0.,12.0,0.,12.0
1980-11-13 21:51:13.260 ,2,0,0.,12.0,0.,12.0,0.,12.0,0.,12.0
1980-11-13 21:51:25.260 ,2,0,0.,12.0,0.,12.0,0.,12.0,0.,12.0
1980-11-13 21:51:37.260 ,2,0,0.,12.0,0.,12.0,0.,12.0,0.,12.0
1980-11-13 21:51:49.260 ,2,0,0.,12.0,0.,12.0,0.,12.0,0.,12.0
1980-11-13 21:52:01.260 ,2,0,0.,12.0,0.,12.0,0.,12.0,0.,12.0
1980-11-13 21:52:13.260 ,2,0,0.,12.0,0.,12.0,0.,12.0,0.,12.0
1980-11-13 21:52:25.260 ,2,0,0.,12.0,0.,12.0,0.,12.0,0.,12.0
1980-11-13 21:52:37.260 ,2,0,0.,12.0,0.,12.0,0.,12.0,0.,12.0
1980-11-13 21:52:49.260 ,2,0,0.,12.0,0.,12.0,0.,12.0,0.,12.0
1980-11-13 21:53:01.260 ,2,0,0.,12.0,0.,12.0,0.,12.0,0.,12.0
1980-11-13 21:53:13.260 ,2,0,0.,12.0,0.,12.0,0.,12.0,0.,12.0
1980-11-13 21:53:25.260 ,2,0,0.,12.0,1.,12.0,0.,12.0,0.,12.0
1980-11-13 21:53:37.260 ,2,0,0.,12.0,0.,12.0,0.,12.0,0.,12.0
1980-11-13 21:53:49.260 ,2,0,0.,12.0,0.,12.0,0.,12.0,0.,12.0
1980-11-13 21:54:01.260 ,2,0,0.,12.0,0.,12.0,0.,12.0,0.,12.0
1980-11-13 21:54:13.260 ,2,0,0.,12.0,0.,12.0,0.,12.0,0.,12.0
1980-11-13 21:54:25.260 ,2,0,0.,12.0,0.,12.0,0.,12.0,0.,12.0
1980-11-13 21:54:37.260 ,2,0,0.,12.0,0.,12.0,0.,12.0,0.,12.0
1980-11-13 21:54:49.260 ,2,0,0.,12.0,0.,12.0,0.,12.0,0.,12.0
1980-11-13 21:55:01.260 ,2,0,0.,12.0,0.,12.0,0.,12.0,0.,12.0
1980-11-13 21:55:13.260 ,2,0,0.,12.0,0.,12.0,0.,12.0,0.,12.0
1980-11-13 21:55:25.260 ,2,0,0.,12.0,0.,12.0,0.,12.0,0.,12.0
1980-11-13 21:55:37.260 ,2,0,0.,12.0,0.,12.0,0.,12.0,0.,12.0
1980-11-13 21:55:49.260 ,2,0,0.,12.0,0.,12.0,0.,12.0,0.,12.0
1980-11-13 21:56:01.260 ,2,0,0.,12.0,0.,12.0,0.,12.0,0.,12.0
1980-11-13 21:56:13.260 ,2,0,0.,12.0,0.,12.0,0.,12.0,0.,12.0
1980-11-13 21:56:25.260 ,2,0,0.,12.0,0.,12.0,0.,12.0,0.,12.0
1980-11-13 21:56:37.260 ,2,0,0.,12.0,0.,12.0,0.,12.0,0.,12.0
1980-11-13 21:56:49.260 ,2,0,0.,12.0,0.,12.0,0.,12.0,0.,12.0
1980-11-13 21:57:01.260 ,2,0,0.,12.0,0.,12.0,0.,12.0,0.,12.0
1980-11-13 21:57:13.260 ,2,0,0.,12.0,0.,12.0,0.,12.0,0.,12.0
1980-11-13 21:57:25.260 ,2,0,0.,12.0,0.,12.0,0.,12.0,0.,12.0
1980-11-13 21:57:37.260 ,2,0,0.,12.0,0.,12.0,0.,12.0,0.,12.0
1980-11-13 21:57:49.260 ,2,0,0.,12.0,0.,12.0,0.,12.0,0.,12.0
1980-11-13 21:58:01.260 ,2,0,0.,12.0,0.,12.0,0.,12.0,0.,12.0
1980-11-13 21:58:13.260 ,2,0,0.,12.0,0.,12.0,0.,12.0,0.,12.0
1980-11-13 21:58:25.260 ,2,0,0.,12.0,0.,12.0,0.,12.0,0.,12.0
1980-11-13 21:58:37.260 ,2,0,0.,12.0,0.,12.0,0.,12.0,0.,12.0
1980-11-13 21:58:49.260 ,2,0,0.,12.0,0.,12.0,0.,12.0,0.,12.0
1980-11-13 21:59:01.260 ,2,0,0.,12.0,0.,12.0,0.,12.0,0.,12.0
1980-11-13 21:59:13.260 ,2,0,0.,12.0,0.,12.0,0.,12.0,0.,12.0
1980-11-13 21:59:25.260 ,2,0,0.,12.0,0.,12.0,0.,12.0,0.,12.0
1980-11-13 21:59:37.260 ,2,0,0.,12.0,0.,12.0,0.,12.0,1.,12.0
1980-11-13 21:59:49.260 ,2,0,0.,12.0,0.,12.0,0.,12.0,0.,12.0
1980-11-13 22:00:01.260 ,2,0,0.,12.0,0.,12.0,0.,12.0,0.,12.0
1980-11-13 22:00:13.260 ,2,0,0.,12.0,0.,12.0,0.,12.0,0.,12.0
1980-11-13 22:00:25.260 ,2,0,0.,12.0,0.,12.0,0.,12.0,0.,12.0
1980-11-13 22:00:37.260 ,2,0,0.,12.0,0.,12.0,0.,12.0,0.,12.0
1980-11-13 22:00:49.260 ,2,0,0.,12.0,0.,12.0,0.,12.0,1.,12.0
1980-11-13 22:01:01.260 ,2,0,0.,12.0,0.,12.0,0.,12.0,0.,12.0
1980-11-13 22:01:13.260 ,2,0,0.,12.0,0.,12.0,0.,12.0,0.,12.0
1980-11-13 22:01:25.260 ,2,0,0.,12.0,0.,12.0,0.,12.0,0.,12.0
1980-11-13 22:01:37.260 ,2,0,0.,12.0,0.,12.0,0.,12.0,0.,12.0
1980-11-13 22:01:49.260 ,2,0,0.,12.0,0.,12.0,0.,12.0,0.,12.0
1980-11-13 22:02:01.260 ,2,0,0.,12.0,0.,12.0,0.,12.0,0.,12.0
1980-11-13 22:02:13.260 ,2,0,0.,12.0,0.,12.0,0.,12.0,1.,12.0
1980-11-13 22:02:25.260 ,2,0,0.,12.0,0.,12.0,0.,12.0,0.,12.0
1980-11-13 22:02:37.260 ,2,0,0.,12.0,0.,12.0,0.,12.0,0.,12.0
1980-11-13 22:02:49.260 ,2,0,0.,12.0,0.,12.0,0.,12.0,0.,12.0
1980-11-13 22:03:01.260 ,2,0,0.,12.0,0.,12.0,0.,12.0,0.,12.0
1980-11-13 22:03:13.260 ,2,0,0.,12.0,0.,12.0,0.,12.0,0.,12.0
1980-11-13 22:03:25.260 ,2,0,0.,12.0,0.,12.0,0.,12.0,0.,12.0
1980-11-13 22:03:37.260 ,2,0,0.,12.0,0.,12.0,0.,12.0,0.,12.0
1980-11-13 22:03:49.260 ,2,0,0.,12.0,0.,12.0,0.,12.0,0.,12.0
1980-11-13 22:04:01.260 ,2,0,0.,12.0,0.,12.0,0.,12.0,0.,12.0
1980-11-13 22:04:13.260 ,2,0,0.,12.0,0.,12.0,0.,12.0,0.,12.0
1980-11-13 22:04:25.260 ,2,0,0.,12.0,0.,12.0,0.,12.0,0.,12.0
1980-11-13 22:04:37.260 ,2,0,0.,12.0,0.,12.0,0.,12.0,0.,12.0
1980-11-13 22:04:49.260 ,2,0,0.,12.0,0.,12.0,0.,12.0,0.,12.0
1980-11-13 22:05:01.260 ,2,0,0.,12.0,0.,12.0,0.,12.0,0.,12.0
1980-11-13 22:05:13.260 ,2,0,0.,12.0,0.,12.0,0.,12.0,0.,12.0
1980-11-13 22:05:25.260 ,2,0,0.,12.0,0.,12.0,0.,12.0,0.,12.0
1980-11-13 22:05:37.260 ,2,0,0.,12.0,0.,12.0,0.,12.0,0.,12.0
1980-11-13 22:05:49.260 ,2,0,0.,12.0,0.,12.0,0.,12.0,0.,12.0
1980-11-13 22:06:01.260 ,2,0,0.,12.0,0.,12.0,0.,12.0,0.,12.0
1980-11-13 22:06:13.260 ,2,0,0.,12.0,0.,12.0,0.,12.0,0.,12.0
1980-11-13 22:06:25.260 ,2,0,0.,12.0,0.,12.0,0.,12.0,0.,12.0
1980-11-13 22:06:37.260 ,2,0,0.,12.0,0.,12.0,0.,12.0,0.,12.0
1980-11-13 22:06:49.260 ,2,0,0.,12.0,0.,12.0,0.,12.0,0.,12.0
1980-11-13 22:07:01.260 ,2,0,0.,12.0,0.,12.0,0.,12.0,0.,12.0
1980-11-13 22:07:13.260 ,2,0,0.,12.0,0.,12.0,0.,12.0,0.,12.0
1980-11-13 22:07:25.260 ,2,0,0.,12.0,0.,12.0,0.,12.0,0.,12.0
1980-11-13 22:07:37.260 ,2,0,0.,12.0,0.,12.0,0.,12.0,0.,12.0
1980-11-13 22:07:49.260 ,2,0,0.,12.0,0.,12.0,0.,12.0,0.,12.0
1980-11-13 22:08:01.260 ,2,0,0.,12.0,0.,12.0,0.,12.0,0.,12.0
1980-11-13 22:08:13.260 ,2,0,0.,12.0,0.,12.0,0.,12.0,0.,12.0
1980-11-13 22:08:25.260 ,2,0,0.,12.0,0.,12.0,0.,12.0,0.,12.0
1980-11-13 22:08:37.260 ,2,0,0.,12.0,0.,12.0,0.,12.0,0.,12.0
1980-11-13 22:08:49.260 ,2,0,0.,12.0,0.,12.0,0.,12.0,0.,12.0
1980-11-13 22:09:01.260 ,2,0,0.,12.0,0.,12.0,0.,12.0,0.,12.0
1980-11-13 22:09:13.260 ,2,0,0.,12.0,0.,12.0,0.,12.0,0.,12.0
1980-11-13 22:09:25.260 ,2,0,0.,12.0,0.,12.0,0.,12.0,0.,12.0
1980-11-13 22:09:37.260 ,2,0,0.,12.0,0.,12.0,0.,12.0,0.,12.0
1980-11-13 22:09:49.260 ,2,0,0.,12.0,0.,12.0,0.,12.0,0.,12.0
1980-11-13 22:10:01.260 ,2,0,0.,12.0,0.,12.0,0.,12.0,0.,12.0
1980-11-13 22:10:13.260 ,2,0,0.,12.0,0.,12.0,0.,12.0,0.,12.0
1980-11-13 22:10:25.260 ,2,0,0.,12.0,0.,12.0,0.,12.0,0.,12.0
1980-11-13 22:10:37.260 ,2,0,0.,12.0,0.,12.0,0.,12.0,0.,12.0
1980-11-13 22:10:49.260 ,2,0,0.,12.0,0.,12.0,0.,12.0,0.,12.0
1980-11-13 22:11:01.260 ,2,0,0.,12.0,0.,12.0,0.,12.0,0.,12.0
1980-11-13 22:11:13.260 ,2,0,0.,12.0,0.,12.0,0.,12.0,0.,12.0
1980-11-13 22:11:25.260 ,2,0,0.,12.0,0.,12.0,0.,12.0,0.,12.0
1980-11-13 22:11:37.260 ,2,0,0.,12.0,0.,12.0,0.,12.0,0.,12.0
1980-11-13 22:11:49.260 ,2,0,0.,12.0,0.,12.0,0.,12.0,0.,12.0
1980-11-13 22:12:01.260 ,2,0,0.,12.0,0.,12.0,0.,12.0,0.,12.0
1980-11-13 22:12:13.260 ,2,0,0.,12.0,0.,12.0,0.,12.0,0.,12.0
1980-11-13 22:12:25.260 ,2,0,0.,12.0,0.,12.0,0.,12.0,0.,12.0
1980-11-13 22:12:37.260 ,2,0,0.,12.0,0.,12.0,0.,12.0,0.,12.0
1980-11-13 22:12:49.260 ,2,0,0.,12.0,0.,12.0,0.,12.0,0.,12.0
1980-11-13 22:13:01.260 ,2,0,0.,12.0,0.,12.0,0.,12.0,0.,12.0
1980-11-13 22:13:13.260 ,2,0,0.,12.0,0.,12.0,0.,12.0,0.,12.0
1980-11-13 22:13:25.260 ,2,0,0.,12.0,0.,12.0,0.,12.0,0.,12.0
1980-11-13 22:13:37.260 ,2,0,0.,12.0,0.,12.0,0.,12.0,0.,12.0
1980-11-13 22:13:49.260 ,2,0,0.,12.0,0.,12.0,0.,12.0,0.,12.0
1980-11-13 22:14:01.260 ,2,0,0.,12.0,0.,12.0,0.,12.0,0.,12.0
1980-11-13 22:14:13.260 ,2,0,0.,12.0,0.,12.0,0.,12.0,0.,12.0
1980-11-13 22:14:25.260 ,2,0,0.,12.0,0.,12.0,0.,12.0,0.,12.0
1980-11-13 22:14:37.260 ,2,0,0.,12.0,0.,12.0,0.,12.0,0.,12.0
1980-11-13 22:14:49.260 ,2,0,0.,12.0,0.,12.0,0.,12.0,0.,12.0
1980-11-13 22:15:01.260 ,2,0,0.,12.0,0.,12.0,0.,12.0,0.,12.0
1980-11-13 22:15:13.260 ,2,0,0.,12.0,0.,12.0,0.,12.0,0.,12.0
1980-11-13 22:15:25.260 ,2,0,0.,12.0,0.,12.0,0.,12.0,0.,12.0
1980-11-13 22:15:37.260 ,2,0,0.,12.0,0.,12.0,0.,12.0,0.,12.0
1980-11-13 22:15:49.260 ,2,0,0.,12.0,0.,12.0,0.,12.0,0.,12.0
1980-11-13 22:16:01.260 ,2,0,0.,12.0,0.,12.0,0.,12.0,0.,12.0
1980-11-13 22:16:13.260 ,2,0,0.,12.0,0.,12.0,0.,12.0,0.,12.0
1980-11-13 22:16:25.260 ,2,0,0.,12.0,0.,12.0,0.,12.0,0.,12.0
1980-11-13 22:16:37.260 ,2,0,0.,12.0,0.,12.0,0.,12.0,0.,12.0
1980-11-13 22:16:49.260 ,2,0,0.,12.0,0.,12.0,0.,12.0,0.,12.0
1980-11-13 22:17:01.260 ,2,0,0.,12.0,0.,12.0,0.,12.0,1.,12.0
1980-11-13 22:17:13.260 ,2,0,0.,12.0,0.,12.0,0.,12.0,0.,12.0
1980-11-13 22:17:25.260 ,2,0,0.,12.0,0.,12.0,0.,12.0,0.,12.0
1980-11-13 22:17:37.260 ,2,0,0.,12.0,0.,12.0,0.,12.0,0.,12.0
1980-11-13 22:17:49.260 ,2,0,0.,12.0,0.,12.0,0.,12.0,0.,12.0